Regional Weather Roundup
Issued by NWS Raleigh/Durham, NC

Home | Current Version | Previous Version | Text Only | Print | Product List | Glossary On
Versions: 1 2 3 4 5 6 7 8 9 10 11 12 13 14 15 16 17 18 19 20 21 22 23 24 25 26 27 28 29 30 31 32 33 34 35 36 37 38 39 40 41 42 43 44 45 46 47 48 49 50
000
ASUS42 KRAH 301210
RWRRAH
NORTH CAROLINA WEATHER ROUNDUP
NATIONAL WEATHER SERVICE RALEIGH NC
800 AM EDT THU MAR 30 2017

NOTE: "FAIR" INDICATES FEW OR NO CLOUDS BELOW 12,000 FEET WITH NO
SIGNIFICANT WEATHER AND/OR OBSTRUCTIONS TO VISIBILITY.

NCZ001-053-055-056-065-067-301300-
WESTERN NORTH CAROLINA

CITY           SKY/WX    TMP DP  RH WIND       PRES   REMARKS
ASHEVILLE      CLOUDY    57  51  80 SE7       30.08R
JEFFERSON      NOT AVBL
MORGANTON      CLOUDY    58  56  92 E5        30.14R
HICKORY        CLOUDY    57  56  96 E3        30.10R FOG
RUTHERFORDTON  LGT RAIN  58  58 100 E7        30.09S
MOUNT AIRY     DRIZZLE   56  54  93 E3        30.15R
BOONE          CLOUDY    52  52 100 CALM      30.12R FOG
$$

NCZ021-022-025-041-071-084-088-301300-
CENTRAL NORTH CAROLINA

CITY           SKY/WX    TMP DP  RH WIND       PRES   REMARKS
CHARLOTTE      CLOUDY    60  54  80 SE9       30.10R
GREENSBORO     DRIZZLE   56  52  86 SE8       30.13R
WINSTON-SALEM  CLOUDY    57  51  80 SE7       30.14R
RALEIGH-DURHAM CLOUDY    55  45  68 E8        30.17R
FORT BRAGG     CLOUDY    54  48  80 E6        30.13R
FAYETTEVILLE   CLOUDY    54  49  83 NE8       30.13R
BURLINGTON     CLOUDY    56  48  74 E7        30.14S
LAURINBURG     PTSUNNY   56  52  86 E7        30.12R
$$

NCZ011-015-027-028-043-044-047-080-103-301300-
NORTHEASTERN NORTH CAROLINA

CITY           SKY/WX    TMP DP  RH WIND       PRES   REMARKS
ROCKY MT-WILSO CLOUDY    50  47  89 NE3       30.19R
GREENVILLE     CLOUDY    46  46 100 CALM      30.19S
WASHINGTON     MOSUNNY   46  45  97 CALM      30.19S
ELIZABETH CITY MOSUNNY   48  46  93 N5        30.20R
MANTEO         SUNNY     49  47  92 NE10      30.19R
CAPE HATTERAS  SUNNY     55  46  71 NE9G18    30.16R
$$

NCZ078-087-090-091-093-098-101-301300-
SOUTHEASTERN NORTH CAROLINA

CITY           SKY/WX    TMP DP  RH WIND       PRES   REMARKS
LUMBERTON      SUNNY     55  52  89 E8        30.11R
GOLDSBORO      CLOUDY    51  51 100 NE7       30.16R
KINSTON        CLOUDY    48  48 100 NE6       30.18R FOG
KENANSVILLE    CLOUDY    50  48  93 NE3       30.17R
NEW BERN       SUNNY     50  49  96 N5        30.18R
CHERRY POINT   SUNNY     54  49  83 NE13      30.16R
BEAUFORT       SUNNY     55  49  80 NE8       30.15R
JACKSONVILLE   SUNNY     51  49  92 N7        30.15R
WILMINGTON     SUNNY     53  50  89 NE6       30.13R
$$




USA.gov is the U.S. government's official web portal to all federal, state and local government web resources and services.